| time (UTC) | temp F | wind direction | speed MPH | gust MPH | rain 1hr in | rain 24hr in | rain mn in | humidity % | barometer mb |
| 20260508214026 | 78 | 40 | 0.0 | 4.0 | 0.00 | 0.00 | 0.00 | 67 | 1011.2 |
| 20260508213013 | 78 | 35 | 0.0 | 0.0 | 0.00 | 0.00 | 0.00 | 67 | 1011.4 |
| 20260508212508 | 78 | 33 | 0.0 | 0.0 | 0.00 | 0.00 | 0.00 | 68 | 1011.5 |
| 20260508212003 | 78 | 33 | 0.0 | 0.0 | 0.00 | 0.00 | 0.00 | 68 | 1011.6 |
| 20260508211456 | 78 | 33 | 0.0 | 0.0 | 0.00 | 0.00 | 0.00 | 68 | 1011.7 |
| 20260508210950 | 78 | 33 | 0.0 | 0.0 | 0.00 | 0.00 | 0.00 | 67 | 1011.7 |
| 20260508210444 | 78 | 33 | 0.0 | 0.0 | 0.00 | 0.00 | 0.00 | 67 | 1011.7 |
| 20260508205432 | 78 | 33 | 0.0 | 0.0 | 0.00 | 0.00 | 0.00 | 67 | 1011.7 |
| 20260508204926 | 79 | 33 | 0.0 | 0.0 | 0.00 | 0.00 | 0.00 | 66 | 1011.7 |
| 20260508204420 | 79 | 33 | 0.0 | 0.0 | 0.00 | 0.00 | 0.00 | 66 | 1011.7 |
| 20260508203914 | 79 | 33 | 0.0 | 0.0 | 0.00 | 0.00 | 0.00 | 66 | 1011.8 |
| 20260508203408 | 79 | 27 | 0.0 | 0.0 | 0.00 | 0.00 | 0.00 | 66 | 1011.8 |
| 20260508202902 | 79 | 27 | 0.0 | 0.0 | 0.00 | 0.00 | 0.00 | 66 | 1011.8 |
| 20260508202357 | 79 | 27 | 0.0 | 0.0 | 0.00 | 0.00 | 0.00 | 66 | 1011.8 |
| 20260508201850 | 79 | 27 | 0.0 | 0.0 | 0.00 | 0.00 | 0.00 | 66 | 1011.9 |
| 20260508200838 | 79 | 22 | 0.0 | 0.0 | 0.00 | 0.00 | 0.00 | 65 | 1012.0 |
| 20260508200332 | 79 | 40 | 0.0 | 0.0 | 0.00 | 0.00 | 0.00 | 65 | 1012.0 |
| 20260508195825 | 79 | 42 | 0.0 | 3.0 | 0.00 | 0.00 | 0.00 | 65 | 1012.0 |
| 20260508195320 | 80 | 42 | 0.0 | 3.0 | 0.00 | 0.00 | 0.00 | 65 | 1012.1 |
| 20260508194814 | 80 | 42 | 0.0 | 0.0 | 0.00 | 0.00 | 0.00 | 65 | 1012.1 |
| 20260508194307 | 80 | 47 | 0.0 | 2.0 | 0.00 | 0.00 | 0.00 | 65 | 1012.1 |
| 20260508193805 | 80 | 47 | 1.0 | 5.0 | 0.00 | 0.00 | 0.00 | 64 | 1012.2 |
| 20260508193304 | 80 | 46 | 1.0 | 5.0 | 0.00 | 0.00 | 0.00 | 64 | 1012.2 |
| 20260508192804 | 80 | 46 | 1.0 | 4.0 | 0.00 | 0.00 | 0.00 | 64 | 1012.4 |
| 20260508192306 | 80 | 46 | 1.0 | 4.0 | 0.00 | 0.00 | 0.00 | 64 | 1012.2 |
| 20260508191816 | 80 | 54 | 0.0 | 0.0 | 0.00 | 0.00 | 0.00 | 63 | 1012.4 |
| 20260508191306 | 80 | 44 | 0.0 | 0.0 | 0.00 | 0.00 | 0.00 | 63 | 1012.4 |
| 20260508190802 | 81 | 51 | 0.0 | 0.0 | 0.00 | 0.00 | 0.00 | 63 | 1012.5 |
| 20260508190302 | 81 | 51 | 0.0 | 0.0 | 0.00 | 0.00 | 0.00 | 63 | 1012.6 |
| 20260508185801 | 81 | 52 | 1.0 | 8.0 | 0.00 | 0.00 | 0.00 | 62 | 1012.6 |
| 20260508185259 | 81 | 53 | 1.0 | 8.0 | 0.00 | 0.00 | 0.00 | 62 | 1012.6 |
| 20260508184756 | 81 | 68 | 0.0 | 3.0 | 0.00 | 0.00 | 0.00 | 62 | 1012.7 |
| 20260508184258 | 81 | 82 | 0.0 | 2.0 | 0.00 | 0.00 | 0.00 | 62 | 1012.7 |
| 20260508183800 | 81 | 82 | 0.0 | 0.0 | 0.00 | 0.00 | 0.00 | 61 | 1012.7 |
| 20260508183255 | 81 | 82 | 0.0 | 0.0 | 0.00 | 0.00 | 0.00 | 61 | 1012.7 |
| 20260508182755 | 81 | 83 | 0.0 | 2.0 | 0.00 | 0.00 | 0.00 | 61 | 1012.7 |
| 20260508182251 | 81 | 90 | 1.0 | 4.0 | 0.00 | 0.00 | 0.00 | 61 | 1012.8 |
| 20260508181748 | 81 | 77 | 1.0 | 4.0 | 0.00 | 0.00 | 0.00 | 61 | 1012.8 |
| 20260508181249 | 81 | 76 | 1.0 | 4.0 | 0.00 | 0.00 | 0.00 | 60 | 1012.8 |
| 20260508180744 | 81 | 73 | 0.0 | 0.0 | 0.00 | 0.00 | 0.00 | 60 | 1012.8 |
| 20260508180238 | 81 | 71 | 0.0 | 0.0 | 0.00 | 0.00 | 0.00 | 60 | 1012.8 |
| 20260508175734 | 81 | 71 | 0.0 | 0.0 | 0.00 | 0.00 | 0.00 | 60 | 1012.8 |
| 20260508175226 | 81 | 71 | 0.0 | 0.0 | 0.00 | 0.00 | 0.00 | 60 | 1012.8 |
| 20260508174720 | 81 | 71 | 1.0 | 3.0 | 0.00 | 0.00 | 0.00 | 60 | 1012.8 |
| 20260508174214 | 81 | 69 | 1.0 | 4.0 | 0.00 | 0.00 | 0.00 | 59 | 1012.8 |
| 20260508173708 | 82 | 69 | 2.0 | 6.0 | 0.00 | 0.00 | 0.00 | 59 | 1012.8 |
| 20260508173201 | 82 | 85 | 2.0 | 6.0 | 0.00 | 0.00 | 0.00 | 59 | 1012.8 |
| 20260508172656 | 82 | 84 | 1.0 | 5.0 | 0.00 | 0.00 | 0.00 | 59 | 1012.8 |
| 20260508172149 | 82 | 76 | 0.0 | 0.0 | 0.00 | 0.00 | 0.00 | 59 | 1012.7 |
| 20260508171641 | 82 | 59 | 0.0 | 0.0 | 0.00 | 0.00 | 0.00 | 59 | 1012.8 |
| 20260508171136 | 82 | 94 | 0.0 | 0.0 | 0.00 | 0.00 | 0.00 | 59 | 1012.7 |
| 20260508170851 | 82 | 94 | 0.0 | 0.0 | 0.00 | 0.00 | 0.00 | 58 | 1012.8 |
| 20260508170124 | 82 | 94 | 0.0 | 4.0 | 0.00 | 0.00 | 0.00 | 58 | 1012.7 |
| 20260508165619 | 82 | 94 | 0.0 | 4.0 | 0.00 | 0.00 | 0.00 | 58 | 1012.6 |
| 20260508165111 | 82 | 98 | 1.0 | 3.0 | 0.00 | 0.00 | 0.00 | 58 | 1012.6 |
| 20260508164607 | 82 | 98 | 1.0 | 3.0 | 0.00 | 0.00 | 0.00 | 58 | 1012.6 |
| 20260508164100 | 83 | 98 | 1.0 | 3.0 | 0.00 | 0.00 | 0.00 | 58 | 1012.4 |
| 20260508163555 | 83 | 98 | 2.0 | 4.0 | 0.00 | 0.00 | 0.00 | 58 | 1012.5 |
| 20260508163048 | 83 | 100 | 3.0 | 6.0 | 0.00 | 0.00 | 0.00 | 58 | 1012.4 |
| 20260508162542 | 83 | 104 | 3.0 | 6.0 | 0.00 | 0.00 | 0.00 | 58 | 1012.4 |
| 20260508162036 | 83 | 90 | 2.0 | 6.0 | 0.00 | 0.00 | 0.00 | 57 | 1012.4 |
| 20260508161752 | 83 | 96 | 1.0 | 6.0 | 0.00 | 0.00 | 0.00 | 57 | 1012.4 |
| 20260508161024 | 83 | 95 | 1.0 | 6.0 | 0.00 | 0.00 | 0.00 | 57 | 1012.2 |
| 20260508160518 | 83 | 113 | 2.0 | 6.0 | 0.00 | 0.00 | 0.00 | 57 | 1012.1 |
| 20260508160013 | 83 | 108 | 3.0 | 7.0 | 0.00 | 0.00 | 0.00 | 57 | 1012.1 |
| 20260508155506 | 83 | 116 | 4.0 | 8.0 | 0.00 | 0.00 | 0.00 | 57 | 1012.1 |
| 20260508155001 | 83 | 102 | 3.0 | 8.0 | 0.00 | 0.00 | 0.00 | 57 | 1012.1 |
| 20260508154454 | 84 | 113 | 2.0 | 6.0 | 0.00 | 0.00 | 0.00 | 57 | 1011.9 |
| 20260508154210 | 84 | 103 | 2.0 | 6.0 | 0.00 | 0.00 | 0.00 | 57 | 1011.9 |
| 20260508153442 | 84 | 103 | 3.0 | 6.0 | 0.00 | 0.00 | 0.00 | 57 | 1011.8 |
| 20260508153154 | 84 | 111 | 3.0 | 6.0 | 0.00 | 0.00 | 0.00 | 57 | 1011.7 |
| 20260508152430 | 84 | 119 | 3.0 | 6.0 | 0.00 | 0.00 | 0.00 | 57 | 1011.7 |
| 20260508151924 | 84 | 117 | 2.0 | 5.0 | 0.00 | 0.00 | 0.00 | 57 | 1011.8 |
| 20260508151638 | 84 | 115 | 2.0 | 6.0 | 0.00 | 0.00 | 0.00 | 56 | 1011.5 |
| 20260508150912 | 85 | 115 | 2.0 | 6.0 | 0.00 | 0.00 | 0.00 | 56 | 1011.5 |
| 20260508150406 | 85 | 109 | 3.0 | 7.0 | 0.00 | 0.00 | 0.00 | 56 | 1011.4 |
| 20260508145900 | 85 | 129 | 3.0 | 8.0 | 0.00 | 0.00 | 0.00 | 56 | 1011.4 |
| 20260508145354 | 85 | 121 | 4.0 | 7.0 | 0.00 | 0.00 | 0.00 | 56 | 1011.3 |
| 20260508144848 | 85 | 117 | 4.0 | 9.0 | 0.00 | 0.00 | 0.00 | 56 | 1011.3 |
| 20260508144342 | 85 | 113 | 4.0 | 9.0 | 0.00 | 0.00 | 0.00 | 56 | 1011.2 |
| 20260508143836 | 85 | 127 | 4.0 | 8.0 | 0.00 | 0.00 | 0.00 | 56 | 1011.2 |
| 20260508143330 | 85 | 123 | 4.0 | 8.0 | 0.00 | 0.00 | 0.00 | 56 | 1011.1 |
| 20260508142824 | 85 | 133 | 4.0 | 12.0 | 0.00 | 0.00 | 0.00 | 56 | 1011.1 |
| 20260508141812 | 85 | 135 | 5.0 | 10.0 | 0.00 | 0.00 | 0.00 | 55 | 1011.1 |
| 20260508141526 | 86 | 117 | 5.0 | 10.0 | 0.00 | 0.00 | 0.00 | 55 | 1011.1 |
| 20260508140800 | 86 | 127 | 4.0 | 10.0 | 0.00 | 0.00 | 0.00 | 55 | 1011.1 |
| 20260508140253 | 86 | 119 | 3.0 | 10.0 | 0.00 | 0.00 | 0.00 | 55 | 1011.1 |
| 20260508135748 | 86 | 132 | 3.0 | 7.0 | 0.00 | 0.00 | 0.00 | 55 | 1011.0 |
| 20260508135244 | 86 | 120 | 4.0 | 8.0 | 0.00 | 0.00 | 0.00 | 55 | 1010.9 |
| 20260508134744 | 86 | 153 | 4.0 | 9.0 | 0.00 | 0.00 | 0.00 | 54 | 1010.7 |
| 20260508134504 | 87 | 149 | 4.0 | 9.0 | 0.00 | 0.00 | 0.00 | 54 | 1010.8 |
| 20260508133744 | 87 | 151 | 4.0 | 7.0 | 0.00 | 0.00 | 0.00 | 54 | 1010.8 |
| 20260508133504 | 87 | 104 | 4.0 | 9.0 | 0.00 | 0.00 | 0.00 | 54 | 1010.9 |
| 20260508132744 | 87 | 127 | 4.0 | 10.0 | 0.00 | 0.00 | 0.00 | 54 | 1010.9 |
| 20260508132244 | 87 | 166 | 4.0 | 10.0 | 0.00 | 0.00 | 0.00 | 54 | 1010.7 |
| 20260508131745 | 87 | 126 | 3.0 | 9.0 | 0.00 | 0.00 | 0.00 | 54 | 1010.9 |
| 20260508131509 | 87 | 144 | 4.0 | 12.0 | 0.00 | 0.00 | 0.00 | 54 | 1010.9 |
| 20260508130746 | 87 | 119 | 4.0 | 12.0 | 0.00 | 0.00 | 0.00 | 54 | 1010.9 |
| 20260508130243 | 87 | 107 | 4.0 | 7.0 | 0.00 | 0.00 | 0.00 | 54 | 1011.0 |
| 20260508125740 | 88 | 140 | 4.0 | 10.0 | 0.00 | 0.00 | 0.00 | 54 | 1011.0 |
| 20260508125238 | 88 | 131 | 5.0 | 10.0 | 0.00 | 0.00 | 0.00 | 54 | 1010.9 |
| 20260508124738 | 88 | 90 | 4.0 | 8.0 | 0.00 | 0.00 | 0.00 | 54 | 1010.9 |
| 20260508124459 | 88 | 113 | 4.0 | 10.0 | 0.00 | 0.00 | 0.00 | 54 | 1010.8 |
| 20260508123741 | 88 | 120 | 5.0 | 11.0 | 0.00 | 0.00 | 0.00 | 53 | 1010.8 |
| 20260508123240 | 88 | 125 | 5.0 | 11.0 | 0.00 | 0.00 | 0.00 | 53 | 1010.8 |
| 20260508123002 | 88 | 146 | 5.0 | 10.0 | 0.00 | 0.00 | 0.00 | 53 | 1010.7 |
| 20260508122232 | 88 | 127 | 5.0 | 10.0 | 0.00 | 0.00 | 0.00 | 53 | 1010.7 |
| 20260508121734 | 88 | 101 | 5.0 | 10.0 | 0.00 | 0.00 | 0.00 | 53 | 1010.7 |
| 20260508121232 | 89 | 123 | 5.0 | 10.0 | 0.00 | 0.00 | 0.00 | 53 | 1010.6 |
| 20260508120730 | 89 | 112 | 5.0 | 11.0 | 0.00 | 0.00 | 0.00 | 53 | 1010.7 |
| 20260508120228 | 89 | 100 | 5.0 | 11.0 | 0.00 | 0.00 | 0.00 | 53 | 1010.5 |
| 20260508115730 | 89 | 99 | 5.0 | 11.0 | 0.00 | 0.00 | 0.00 | 52 | 1010.5 |
| 20260508115230 | 89 | 128 | 6.0 | 12.0 | 0.00 | 0.00 | 0.00 | 52 | 1010.4 |
| 20260508114728 | 89 | 121 | 5.0 | 12.0 | 0.00 | 0.00 | 0.00 | 52 | 1010.4 |
| 20260508114230 | 89 | 94 | 5.0 | 12.0 | 0.00 | 0.00 | 0.00 | 52 | 1010.4 |
| 20260508113728 | 89 | 126 | 5.0 | 10.0 | 0.00 | 0.00 | 0.00 | 52 | 1010.2 |
| 20260508113229 | 90 | 128 | 5.0 | 10.0 | 0.00 | 0.00 | 0.00 | 51 | 1010.2 |
| 20260508112732 | 90 | 135 | 5.0 | 12.0 | 0.00 | 0.00 | 0.00 | 52 | 1010.2 |
| 20260508112232 | 90 | 111 | 5.0 | 13.0 | 0.00 | 0.00 | 0.00 | 51 | 1010.2 |
| 20260508111734 | 90 | 123 | 5.0 | 13.0 | 0.00 | 0.00 | 0.00 | 51 | 1010.4 |
| 20260508111229 | 90 | 156 | 5.0 | 10.0 | 0.00 | 0.00 | 0.00 | 51 | 1010.4 |
| 20260508110728 | 90 | 93 | 6.0 | 10.0 | 0.00 | 0.00 | 0.00 | 51 | 1010.4 |
| 20260508110226 | 90 | 128 | 5.0 | 12.0 | 0.00 | 0.00 | 0.00 | 52 | 1010.5 |
| 20260508105726 | 90 | 142 | 5.0 | 12.0 | 0.00 | 0.00 | 0.00 | 51 | 1010.5 |
| 20260508104728 | 90 | 142 | 5.0 | 11.0 | 0.00 | 0.00 | 0.00 | 52 | 1010.6 |
| 20260508104446 | 90 | 126 | 4.0 | 9.0 | 0.00 | 0.00 | 0.00 | 51 | 1010.5 |
| 20260508103726 | 90 | 150 | 4.0 | 9.0 | 0.00 | 0.00 | 0.00 | 52 | 1010.5 |
| 20260508103228 | 90 | 140 | 4.0 | 9.0 | 0.00 | 0.00 | 0.00 | 52 | 1010.7 |
| 20260508102729 | 90 | 90 | 4.0 | 9.0 | 0.00 | 0.00 | 0.00 | 51 | 1010.6 |
| 20260508102227 | 90 | 113 | 3.0 | 9.0 | 0.00 | 0.00 | 0.00 | 52 | 1010.7 |
| 20260508101727 | 90 | 67 | 4.0 | 11.0 | 0.00 | 0.00 | 0.00 | 51 | 1010.7 |
| 20260508101227 | 90 | 89 | 4.0 | 11.0 | 0.00 | 0.00 | 0.00 | 51 | 1010.7 |
| 20260508100725 | 90 | 136 | 4.0 | 12.0 | 0.00 | 0.00 | 0.00 | 51 | 1010.8 |
| 20260508100458 | 91 | 100 | 4.0 | 12.0 | 0.00 | 0.00 | 0.00 | 52 | 1010.9 |
| 20260508095726 | 91 | 109 | 3.0 | 9.0 | 0.00 | 0.00 | 0.00 | 51 | 1010.9 |
| 20260508095454 | 91 | 84 | 5.0 | 12.0 | 0.00 | 0.00 | 0.00 | 51 | 1011.0 |
| 20260508094726 | 91 | 169 | 4.0 | 12.0 | 0.00 | 0.00 | 0.00 | 51 | 1011.0 |
| 20260508094225 | 91 | 102 | 4.0 | 11.0 | 0.00 | 0.00 | 0.00 | 50 | 1011.1 |
| 20260508093728 | 91 | 115 | 5.0 | 11.0 | 0.00 | 0.00 | 0.00 | 50 | 1011.1 |
| 20260508093226 | 92 | 168 | 5.0 | 10.0 | 0.00 | 0.00 | 0.00 | 50 | 1011.2 |
| 20260508092726 | 92 | 151 | 3.0 | 10.0 | 0.00 | 0.00 | 0.00 | 50 | 1011.2 |
| 20260508092226 | 91 | 237 | 3.0 | 14.0 | 0.00 | 0.00 | 0.00 | 51 | 1011.1 |
| 20260508092003 | 91 | 82 | 5.0 | 14.0 | 0.00 | 0.00 | 0.00 | 51 | 1011.2 |
| 20260508091228 | 91 | 192 | 5.0 | 15.0 | 0.00 | 0.00 | 0.00 | 50 | 1011.2 |
| 20260508090726 | 91 | 156 | 6.0 | 15.0 | 0.00 | 0.00 | 0.00 | 51 | 1011.3 |
| 20260508090224 | 90 | 183 | 7.0 | 14.0 | 0.00 | 0.00 | 0.00 | 50 | 1011.2 |
| 20260508085720 | 91 | 155 | 6.0 | 14.0 | 0.00 | 0.00 | 0.00 | 50 | 1011.3 |
| 20260508085224 | 91 | 118 | 5.0 | 10.0 | 0.00 | 0.00 | 0.00 | 50 | 1011.3 |
| 20260508084718 | 91 | 129 | 5.0 | 10.0 | 0.00 | 0.00 | 0.00 | 50 | 1011.4 |
| 20260508084210 | 91 | 97 | 5.0 | 10.0 | 0.00 | 0.00 | 0.00 | 50 | 1011.4 |
| 20260508083708 | 90 | 149 | 6.0 | 12.0 | 0.00 | 0.00 | 0.00 | 51 | 1011.3 |
| 20260508083429 | 90 | 170 | 6.0 | 12.0 | 0.00 | 0.00 | 0.00 | 50 | 1011.4 |
| 20260508082706 | 90 | 163 | 5.0 | 13.0 | 0.00 | 0.00 | 0.00 | 51 | 1011.5 |
| 20260508082205 | 90 | 143 | 6.0 | 13.0 | 0.00 | 0.00 | 0.00 | 51 | 1011.4 |
| 20260508081706 | 89 | 157 | 6.0 | 10.0 | 0.00 | 0.00 | 0.00 | 51 | 1011.5 |
| 20260508081208 | 89 | 133 | 5.0 | 11.0 | 0.00 | 0.00 | 0.00 | 51 | 1011.5 |
| 20260508080707 | 89 | 128 | 6.0 | 11.0 | 0.00 | 0.00 | 0.00 | 51 | 1011.5 |
| 20260508080205 | 89 | 153 | 5.0 | 11.0 | 0.00 | 0.00 | 0.00 | 51 | 1011.6 |
| 20260508075936 | 89 | 191 | 6.0 | 12.0 | 0.00 | 0.00 | 0.00 | 53 | 1011.6 |
| 20260508075201 | 89 | 128 | 6.0 | 12.0 | 0.00 | 0.00 | 0.00 | 52 | 1011.6 |
| 20260508074702 | 89 | 164 | 6.0 | 11.0 | 0.00 | 0.00 | 0.00 | 52 | 1011.6 |
| 20260508074202 | 88 | 119 | 6.0 | 11.0 | 0.00 | 0.00 | 0.00 | 53 | 1011.6 |
| 20260508073702 | 88 | 95 | 6.0 | 11.0 | 0.00 | 0.00 | 0.00 | 54 | 1011.6 |
| 20260508073201 | 88 | 136 | 5.0 | 11.0 | 0.00 | 0.00 | 0.00 | 52 | 1011.7 |
| 20260508072707 | 88 | 161 | 5.0 | 10.0 | 0.00 | 0.00 | 0.00 | 52 | 1011.6 |
| 20260508072200 | 88 | 101 | 5.0 | 10.0 | 0.00 | 0.00 | 0.00 | 52 | 1011.6 |
| 20260508071922 | 88 | 135 | 6.0 | 10.0 | 0.00 | 0.00 | 0.00 | 53 | 1011.6 |
| 20260508071156 | 87 | 118 | 5.0 | 10.0 | 0.00 | 0.00 | 0.00 | 54 | 1011.7 |
| 20260508070657 | 87 | 108 | 4.0 | 11.0 | 0.00 | 0.00 | 0.00 | 55 | 1011.7 |
| 20260508070417 | 87 | 74 | 4.0 | 11.0 | 0.00 | 0.00 | 0.00 | 54 | 1011.7 |
| 20260508065655 | 87 | 99 | 5.0 | 10.0 | 0.00 | 0.00 | 0.00 | 53 | 1011.7 |
| 20260508065155 | 87 | 130 | 4.0 | 9.0 | 0.00 | 0.00 | 0.00 | 52 | 1011.8 |
| 20260508064654 | 87 | 151 | 5.0 | 9.0 | 0.00 | 0.00 | 0.00 | 53 | 1011.9 |
| 20260508064152 | 86 | 126 | 5.0 | 10.0 | 0.00 | 0.00 | 0.00 | 55 | 1011.9 |
| 20260508063915 | 86 | 98 | 4.0 | 10.0 | 0.00 | 0.00 | 0.00 | 54 | 1011.8 |
| 20260508063155 | 86 | 107 | 4.0 | 10.0 | 0.00 | 0.00 | 0.00 | 55 | 1011.9 |
| 20260508062653 | 86 | 138 | 5.0 | 9.0 | 0.00 | 0.00 | 0.00 | 55 | 1011.9 |
| 20260508062150 | 85 | 121 | 5.0 | 11.0 | 0.00 | 0.00 | 0.00 | 56 | 1012.0 |
| 20260508061651 | 85 | 75 | 6.0 | 12.0 | 0.00 | 0.00 | 0.00 | 55 | 1012.0 |
| 20260508061149 | 85 | 131 | 6.0 | 13.0 | 0.00 | 0.00 | 0.00 | 55 | 1012.1 |
| 20260508060649 | 86 | 166 | 5.0 | 13.0 | 0.00 | 0.00 | 0.00 | 54 | 1012.1 |
| 20260508060150 | 86 | 184 | 6.0 | 11.0 | 0.00 | 0.00 | 0.00 | 55 | 1012.0 |
| 20260508055652 | 86 | 155 | 5.0 | 11.0 | 0.00 | 0.00 | 0.00 | 55 | 1012.1 |
| 20260508055144 | 86 | 137 | 3.0 | 9.0 | 0.00 | 0.00 | 0.00 | 56 | 1012.1 |
| 20260508054901 | 85 | 146 | 3.0 | 9.0 | 0.00 | 0.00 | 0.00 | 57 | 1012.1 |
| 20260508054401 | 85 | 167 | 4.0 | 9.0 | 0.00 | 0.00 | 0.00 | 56 | 1012.1 |
| 20260508053626 | 85 | 142 | 5.0 | 9.0 | 0.00 | 0.00 | 0.00 | 57 | 1012.1 |
| 20260508053119 | 84 | 160 | 4.0 | 9.0 | 0.00 | 0.00 | 0.00 | 57 | 1012.1 |
| 20260508052613 | 84 | 137 | 6.0 | 10.0 | 0.00 | 0.00 | 0.00 | 58 | 1012.1 |
| 20260508052108 | 84 | 146 | 5.0 | 11.0 | 0.00 | 0.00 | 0.00 | 58 | 1012.2 |
| 20260508051601 | 83 | 155 | 4.0 | 11.0 | 0.00 | 0.00 | 0.00 | 58 | 1012.2 |
| 20260508051055 | 83 | 142 | 4.0 | 11.0 | 0.00 | 0.00 | 0.00 | 59 | 1012.4 |
| 20260508050550 | 83 | 109 | 4.0 | 11.0 | 0.00 | 0.00 | 0.00 | 59 | 1012.2 |
| 20260508050043 | 83 | 169 | 4.0 | 8.0 | 0.00 | 0.00 | 0.00 | 59 | 1012.2 |
| 20260508045537 | 83 | 119 | 3.0 | 8.0 | 0.00 | 0.00 | 0.00 | 60 | 1012.5 |
| 20260508045031 | 83 | 121 | 4.0 | 9.0 | 0.00 | 0.00 | 0.00 | 60 | 1012.4 |
| 20260508044525 | 82 | 146 | 5.0 | 12.0 | 0.00 | 0.00 | 0.00 | 60 | 1012.4 |
| 20260508044019 | 82 | 96 | 4.0 | 12.0 | 0.00 | 0.00 | 0.00 | 60 | 1012.4 |
| 20260508043513 | 82 | 123 | 4.0 | 8.0 | 0.00 | 0.00 | 0.00 | 60 | 1012.4 |
| 20260508043008 | 82 | 123 | 4.0 | 8.0 | 0.00 | 0.00 | 0.00 | 60 | 1012.4 |
| 20260508042502 | 82 | 104 | 4.0 | 9.0 | 0.00 | 0.00 | 0.00 | 61 | 1012.5 |
| 20260508041956 | 82 | 138 | 4.0 | 9.0 | 0.00 | 0.00 | 0.00 | 61 | 1012.5 |
| 20260508041450 | 82 | 117 | 4.0 | 9.0 | 0.00 | 0.00 | 0.00 | 61 | 1012.4 |
| 20260508040944 | 81 | 143 | 4.0 | 9.0 | 0.00 | 0.00 | 0.00 | 61 | 1012.5 |
| 20260508040437 | 81 | 127 | 4.0 | 8.0 | 0.00 | 0.00 | 0.00 | 62 | 1012.5 |
| 20260508035931 | 81 | 82 | 4.0 | 10.0 | 0.00 | 0.00 | 0.00 | 62 | 1012.5 |
| 20260508035426 | 81 | 69 | 3.0 | 10.0 | 0.00 | 0.00 | 0.00 | 62 | 1012.4 |
| 20260508034919 | 80 | 113 | 3.0 | 8.0 | 0.00 | 0.00 | 0.00 | 62 | 1012.4 |
| 20260508034413 | 80 | 109 | 3.0 | 8.0 | 0.00 | 0.00 | 0.00 | 63 | 1012.5 |
| 20260508034138 | 80 | 127 | 4.0 | 8.0 | 0.00 | 0.00 | 0.00 | 63 | 1012.5 |
| 20260508033401 | 80 | 83 | 4.0 | 8.0 | 0.00 | 0.00 | 0.00 | 63 | 1012.5 |
| 20260508032855 | 80 | 104 | 3.0 | 8.0 | 0.00 | 0.00 | 0.00 | 63 | 1012.6 |
| 20260508032349 | 79 | 84 | 3.0 | 8.0 | 0.00 | 0.00 | 0.00 | 64 | 1012.6 |
| 20260508031843 | 79 | 97 | 3.0 | 8.0 | 0.00 | 0.00 | 0.00 | 64 | 1012.6 |
| 20260508031337 | 79 | 117 | 4.0 | 8.0 | 0.00 | 0.00 | 0.00 | 64 | 1012.7 |
| 20260508030831 | 79 | 86 | 4.0 | 8.0 | 0.00 | 0.00 | 0.00 | 64 | 1012.6 |
| 20260508030326 | 79 | 110 | 2.0 | 7.0 | 0.00 | 0.00 | 0.00 | 65 | 1012.6 |
| 20260508025820 | 78 | 105 | 2.0 | 7.0 | 0.00 | 0.00 | 0.00 | 65 | 1012.6 |
| 20260508025313 | 78 | 120 | 4.0 | 9.0 | 0.00 | 0.00 | 0.00 | 65 | 1012.6 |
| 20260508024813 | 78 | 132 | 4.0 | 9.0 | 0.00 | 0.00 | 0.00 | 65 | 1012.6 |
| 20260508024541 | 77 | 70 | 4.0 | 8.0 | 0.00 | 0.00 | 0.00 | 66 | 1012.5 |
| 20260508023811 | 77 | 120 | 4.0 | 8.0 | 0.00 | 0.00 | 0.00 | 66 | 1012.5 |
| 20260508023311 | 77 | 135 | 5.0 | 10.0 | 0.00 | 0.00 | 0.00 | 66 | 1012.5 |
| 20260508023033 | 77 | 112 | 5.0 | 10.0 | 0.00 | 0.00 | 0.00 | 66 | 1012.5 |
| 20260508022534 | 77 | 125 | 4.0 | 10.0 | 0.00 | 0.00 | 0.00 | 66 | 1012.5 |
| 20260508021812 | 77 | 127 | 4.0 | 9.0 | 0.00 | 0.00 | 0.00 | 67 | 1012.4 |
| 20260508021311 | 77 | 108 | 5.0 | 11.0 | 0.00 | 0.00 | 0.00 | 66 | 1012.2 |
| 20260508020811 | 76 | 100 | 5.0 | 11.0 | 0.00 | 0.00 | 0.00 | 66 | 1012.2 |
| 20260508020312 | 77 | 94 | 4.0 | 9.0 | 0.00 | 0.00 | 0.00 | 66 | 1012.2 |
| 20260508015811 | 77 | 109 | 4.0 | 9.0 | 0.00 | 0.00 | 0.00 | 66 | 1012.2 |
| 20260508015314 | 76 | 105 | 5.0 | 10.0 | 0.00 | 0.00 | 0.00 | 66 | 1012.1 |
| 20260508014816 | 77 | 93 | 4.0 | 10.0 | 0.00 | 0.00 | 0.00 | 66 | 1012.2 |
| 20260508014542 | 77 | 99 | 4.0 | 9.0 | 0.00 | 0.00 | 0.00 | 66 | 1012.0 |
| 20260508014031 | 76 | 107 | 3.0 | 8.0 | 0.00 | 0.00 | 0.00 | 66 | 1012.0 |
| 20260508013309 | 76 | 92 | 2.0 | 6.0 | 0.00 | 0.00 | 0.00 | 66 | 1011.9 |
| 20260508012809 | 76 | 84 | 2.0 | 6.0 | 0.00 | 0.00 | 0.00 | 67 | 1011.9 |
| 20260508012308 | 76 | 81 | 2.0 | 8.0 | 0.00 | 0.00 | 0.00 | 67 | 1011.8 |
| 20260508011807 | 76 | 108 | 2.0 | 8.0 | 0.00 | 0.00 | 0.00 | 66 | 1011.8 |
| 20260508011310 | 76 | 86 | 3.0 | 7.0 | 0.00 | 0.00 | 0.00 | 67 | 1011.7 |
| 20260508010807 | 76 | 93 | 2.0 | 7.0 | 0.00 | 0.00 | 0.00 | 67 | 1011.6 |
| 20260508010306 | 76 | 94 | 1.0 | 4.0 | 0.00 | 0.00 | 0.00 | 67 | 1011.6 |
| 20260508005807 | 76 | 97 | 2.0 | 3.0 | 0.00 | 0.00 | 0.00 | 67 | 1011.6 |
| 20260508005538 | 76 | 96 | 1.0 | 4.0 | 0.00 | 0.00 | 0.00 | 66 | 1011.5 |
| 20260508005031 | 76 | 97 | 1.0 | 4.0 | 0.00 | 0.00 | 0.00 | 66 | 1011.5 |
| 20260508004303 | 76 | 98 | 1.0 | 3.0 | 0.00 | 0.00 | 0.00 | 66 | 1011.5 |
| 20260508003803 | 76 | 98 | 1.0 | 3.0 | 0.00 | 0.00 | 0.00 | 66 | 1011.4 |
| 20260508003305 | 76 | 93 | 0.0 | 3.0 | 0.00 | 0.00 | 0.00 | 66 | 1011.4 |
| 20260508003024 | 76 | 93 | 1.0 | 4.0 | 0.00 | 0.00 | 0.00 | 66 | 1011.4 |
| 20260508002306 | 76 | 91 | 2.0 | 4.0 | 0.00 | 0.00 | 0.00 | 66 | 1011.3 |
| 20260508002023 | 76 | 86 | 2.0 | 4.0 | 0.00 | 0.00 | 0.00 | 66 | 1011.2 |
| 20260508001303 | 76 | 86 | 1.0 | 4.0 | 0.00 | 0.00 | 0.00 | 65 | 1011.2 |
| 20260508001036 | 76 | 86 | 0.0 | 4.0 | 0.00 | 0.00 | 0.00 | 65 | 1011.2 |
| 20260508000301 | 76 | 74 | 0.0 | 0.0 | 0.00 | 0.00 | 0.00 | 65 | 1011.1 |
| 20260507235759 | 76 | 74 | 0.0 | 0.0 | 0.00 | 0.00 | 0.00 | 65 | 1011.0 |
| 20260507235259 | 76 | 74 | 0.0 | 2.0 | 0.00 | 0.00 | 0.00 | 65 | 1010.9 |
| 20260507234759 | 76 | 74 | 0.0 | 3.0 | 0.00 | 0.00 | 0.00 | 65 | 1010.9 |
| 20260507234259 | 76 | 74 | 0.0 | 3.0 | 0.00 | 0.00 | 0.00 | 65 | 1010.8 |
| 20260507234018 | 76 | 75 | 0.0 | 0.0 | 0.00 | 0.00 | 0.00 | 65 | 1010.7 |
| 20260507233300 | 76 | 75 | 0.0 | 0.0 | 0.00 | 0.00 | 0.00 | 65 | 1010.7 |
| 20260507233026 | 76 | 75 | 0.0 | 0.0 | 0.00 | 0.00 | 0.00 | 65 | 1010.7 |
| 20260507232301 | 76 | 75 | 0.0 | 0.0 | 0.00 | 0.00 | 0.00 | 65 | 1010.7 |
| 20260507231758 | 77 | 76 | 0.0 | 0.0 | 0.00 | 0.00 | 0.00 | 65 | 1010.8 |
| 20260507231257 | 77 | 76 | 0.0 | 0.0 | 0.00 | 0.00 | 0.00 | 64 | 1010.7 |
| 20260507230758 | 77 | 75 | 0.0 | 0.0 | 0.00 | 0.00 | 0.00 | 64 | 1010.7 |
| 20260507230255 | 77 | 76 | 0.0 | 0.0 | 0.00 | 0.00 | 0.00 | 64 | 1010.7 |
| 20260507225756 | 77 | 76 | 1.0 | 3.0 | 0.00 | 0.00 | 0.00 | 64 | 1010.7 |
| 20260507225253 | 77 | 76 | 1.0 | 3.0 | 0.00 | 0.00 | 0.00 | 64 | 1010.7 |
| 20260507224753 | 77 | 59 | 0.0 | 0.0 | 0.00 | 0.00 | 0.00 | 64 | 1010.7 |
| 20260507224257 | 77 | 48 | 0.0 | 0.0 | 0.00 | 0.00 | 0.00 | 64 | 1010.7 |
| 20260507224017 | 77 | 48 | 0.0 | 0.0 | 0.00 | 0.00 | 0.00 | 63 | 1010.6 |
| 20260507223251 | 77 | 48 | 0.0 | 0.0 | 0.00 | 0.00 | 0.00 | 63 | 1010.6 |
| 20260507222751 | 78 | 48 | 0.0 | 0.0 | 0.00 | 0.00 | 0.00 | 63 | 1010.6 |
| 20260507222251 | 78 | 48 | 0.0 | 0.0 | 0.00 | 0.00 | 0.00 | 63 | 1010.6 |
| 20260507221748 | 78 | 48 | 0.0 | 0.0 | 0.00 | 0.00 | 0.00 | 63 | 1010.6 |
| 20260507221246 | 78 | 48 | 0.0 | 0.0 | 0.00 | 0.00 | 0.00 | 63 | 1010.6 |
| 20260507221012 | 78 | 48 | 1.0 | 3.0 | 0.00 | 0.00 | 0.00 | 63 | 1010.6 |
| 20260507220239 | 78 | 48 | 1.0 | 4.0 | 0.00 | 0.00 | 0.00 | 63 | 1010.6 |
| 20260507215732 | 78 | 49 | 0.0 | 4.0 | 0.00 | 0.00 | 0.00 | 63 | 1010.5 |
| 20260507215452 | 78 | 55 | 0.0 | 0.0 | 0.00 | 0.00 | 0.00 | 63 | 1010.5 |
| 20260507214721 | 78 | 44 | 0.0 | 0.0 | 0.00 | 0.00 | 0.00 | 63 | 1010.6 |
| 20260507214445 | 78 | 44 | 0.0 | 0.0 | 0.00 | 0.00 | 0.00 | 63 | 1010.6 |